TimePST,TemperatureF,Dew PointF,Humidity,Sea Level PressureIn,VisibilityMPH,Wind Direction,Wind SpeedMPH,Gust SpeedMPH,PrecipitationIn,Events,Conditions,WindDirDegrees,DateUTC
12:15 AM,41.0,35.6,81,30.30,10.0,Calm,Calm,-,N/A,,Clear,0,2013-01-30 08:15:00
12:35 AM,42.8,37.4,81,30.29,10.0,Calm,Calm,-,N/A,,Clear,0,2013-01-30 08:35:00
1:15 AM,46.4,35.6,66,30.29,10.0,East,8.1,-,N/A,,Clear,90,2013-01-30 09:15:00
1:35 AM,50.0,35.6,58,30.29,10.0,East,3.5,-,N/A,,Clear,80,2013-01-30 09:35:00
1:55 AM,46.4,35.6,66,30.29,10.0,East,5.8,-,N/A,,Clear,100,2013-01-30 09:55:00
2:15 AM,51.8,35.6,54,30.29,10.0,ENE,3.5,-,N/A,,Clear,60,2013-01-30 10:15:00
2:35 AM,51.8,35.6,54,30.29,10.0,ENE,5.8,-,N/A,,Clear,70,2013-01-30 10:35:00
2:55 AM,51.8,35.6,54,30.28,10.0,ENE,5.8,-,N/A,,Clear,70,2013-01-30 10:55:00
3:15 AM,51.8,35.6,54,30.28,10.0,ENE,4.6,-,N/A,,Clear,60,2013-01-30 11:15:00
3:35 AM,51.8,35.6,54,30.28,10.0,ENE,5.8,-,N/A,,Clear,70,2013-01-30 11:35:00
3:55 AM,50.0,35.6,58,30.27,10.0,ENE,3.5,-,N/A,,Clear,60,2013-01-30 11:55:00
4:15 AM,51.8,35.6,54,30.27,10.0,ENE,4.6,-,N/A,,Clear,60,2013-01-30 12:15:00
4:35 AM,46.4,35.6,66,30.27,10.0,Calm,Calm,-,N/A,,Clear,0,2013-01-30 12:35:00
4:55 AM,44.6,35.6,71,30.27,10.0,WNW,3.5,-,N/A,,Clear,290,2013-01-30 12:55:00
5:15 AM,39.2,35.6,87,30.26,10.0,Calm,Calm,-,N/A,,Clear,0,2013-01-30 13:15:00
5:35 AM,39.2,33.8,81,30.26,10.0,Calm,Calm,-,N/A,,Clear,0,2013-01-30 13:35:00
5:55 AM,41.0,35.6,81,30.27,10.0,West,3.5,-,N/A,,Clear,260,2013-01-30 13:55:00
6:15 AM,37.4,33.8,87,30.28,10.0,Calm,Calm,-,N/A,,Clear,0,2013-01-30 14:15:00
6:35 AM,39.2,35.6,87,30.29,10.0,Calm,Calm,-,N/A,,Clear,0,2013-01-30 14:35:00
7:15 AM,35.6,33.8,93,30.29,10.0,Calm,Calm,-,N/A,,Clear,0,2013-01-30 15:15:00
7:35 AM,37.4,35.6,93,30.30,10.0,Calm,Calm,-,N/A,,Clear,0,2013-01-30 15:35:00
7:55 AM,41.0,35.6,81,30.31,10.0,Calm,Calm,-,N/A,,Clear,0,2013-01-30 15:55:00
8:15 AM,42.8,35.6,76,30.31,10.0,ESE,5.8,-,N/A,,Clear,120,2013-01-30 16:15:00
8:35 AM,44.6,37.4,76,30.32,10.0,SE,3.5,-,N/A,,Clear,140,2013-01-30 16:35:00
8:55 AM,46.4,37.4,71,30.32,10.0,SSE,3.5,-,N/A,,Clear,160,2013-01-30 16:55:00
9:15 AM,46.4,37.4,71,30.33,10.0,SE,4.6,-,N/A,,Clear,140,2013-01-30 17:15:00
9:35 AM,48.2,37.4,66,30.33,10.0,SSE,3.5,-,N/A,,Clear,160,2013-01-30 17:35:00
9:55 AM,48.2,37.4,66,30.33,10.0,South,3.5,-,N/A,,Clear,190,2013-01-30 17:55:00
10:15 AM,50.0,39.2,66,30.33,10.0,SSW,4.6,-,N/A,,Clear,200,2013-01-30 18:15:00
10:35 AM,51.8,37.4,58,30.34,10.0,SSW,3.5,-,N/A,,Clear,210,2013-01-30 18:35:00
10:55 AM,51.8,39.2,62,30.34,10.0,South,3.5,-,N/A,,Clear,180,2013-01-30 18:55:00
11:15 AM,53.6,39.2,58,30.33,10.0,Calm,Calm,-,N/A,,Clear,0,2013-01-30 19:15:00
11:35 AM,53.6,39.2,58,30.33,10.0,SW,4.6,-,N/A,,Clear,220,2013-01-30 19:35:00
11:55 AM,53.6,39.2,58,30.32,10.0,South,3.5,-,N/A,,Clear,190,2013-01-30 19:55:00
12:15 PM,55.4,41.0,58,30.31,10.0,SSW,3.5,-,N/A,,Clear,210,2013-01-30 20:15:00
12:35 PM,55.4,41.0,58,30.30,10.0,West,3.5,-,N/A,,Clear,260,2013-01-30 20:35:00
12:55 PM,55.4,41.0,58,30.29,10.0,SW,3.5,-,N/A,,Clear,220,2013-01-30 20:55:00
1:15 PM,55.4,41.0,58,30.29,10.0,SW,4.6,-,N/A,,Clear,230,2013-01-30 21:15:00
1:35 PM,55.4,41.0,58,30.28,10.0,SSW,3.5,-,N/A,,Clear,210,2013-01-30 21:35:00
1:55 PM,55.4,41.0,58,30.28,10.0,WSW,3.5,-,N/A,,Clear,240,2013-01-30 21:55:00
2:15 PM,55.4,41.0,58,30.28,10.0,SSW,5.8,-,N/A,,Clear,210,2013-01-30 22:15:00
2:35 PM,55.4,41.0,58,30.29,10.0,SW,3.5,-,N/A,,Clear,220,2013-01-30 22:35:00
2:55 PM,57.2,41.0,55,30.28,10.0,SSW,4.6,-,N/A,,Clear,210,2013-01-30 22:55:00
3:15 PM,57.2,41.0,55,30.28,10.0,Calm,Calm,-,N/A,,Clear,0,2013-01-30 23:15:00
3:35 PM,57.2,41.0,55,30.27,10.0,Calm,Calm,-,N/A,,Clear,0,2013-01-30 23:35:00
3:55 PM,57.2,42.8,59,30.27,10.0,SSE,5.8,-,N/A,,Clear,160,2013-01-30 23:55:00
4:15 PM,57.2,42.8,59,30.27,10.0,South,5.8,-,N/A,,Clear,170,2013-01-31 00:15:00
4:35 PM,55.4,42.8,63,30.27,10.0,South,4.6,-,N/A,,Clear,190,2013-01-31 00:35:00
5:15 PM,53.6,42.8,67,30.28,10.0,South,3.5,-,N/A,,Clear,190,2013-01-31 01:15:00
5:35 PM,51.8,42.8,71,30.28,10.0,SSW,3.5,-,N/A,,Clear,200,2013-01-31 01:35:00
5:55 PM,50.0,41.0,71,30.28,10.0,Calm,Calm,-,N/A,,Clear,0,2013-01-31 01:55:00
6:15 PM,44.6,39.2,81,30.29,10.0,Calm,Calm,-,N/A,,Clear,0,2013-01-31 02:15:00
6:35 PM,42.8,39.2,87,30.29,10.0,Calm,Calm,-,N/A,,Clear,0,2013-01-31 02:35:00
6:55 PM,42.8,39.2,87,30.29,10.0,Calm,Calm,-,N/A,,Clear,0,2013-01-31 02:55:00
7:15 PM,46.4,41.0,81,30.29,10.0,East,4.6,-,N/A,,Clear,100,2013-01-31 03:15:00
7:35 PM,46.4,41.0,81,30.28,10.0,East,4.6,-,N/A,,Clear,100,2013-01-31 03:35:00
7:55 PM,48.2,42.8,82,30.28,10.0,East,3.5,-,N/A,,Clear,80,2013-01-31 03:55:00
8:15 PM,48.2,42.8,82,30.28,10.0,East,4.6,-,N/A,,Clear,100,2013-01-31 04:15:00
8:35 PM,48.2,42.8,82,30.28,10.0,East,3.5,-,N/A,,Clear,100,2013-01-31 04:35:00
8:55 PM,46.4,42.8,87,30.28,10.0,Calm,Calm,-,N/A,,Clear,0,2013-01-31 04:55:00
9:15 PM,44.6,41.0,87,30.28,10.0,Calm,Calm,-,N/A,,Clear,0,2013-01-31 05:15:00
9:35 PM,42.8,39.2,87,30.28,10.0,Calm,Calm,-,N/A,,Clear,0,2013-01-31 05:35:00
9:55 PM,44.6,41.0,87,30.29,10.0,Calm,Calm,-,N/A,,Clear,0,2013-01-31 05:55:00
10:15 PM,41.0,39.2,93,30.29,10.0,Calm,Calm,-,N/A,,Clear,0,2013-01-31 06:15:00
10:35 PM,42.8,39.2,87,30.29,10.0,Calm,Calm,-,N/A,,Clear,0,2013-01-31 06:35:00
10:55 PM,46.4,42.8,87,30.28,10.0,East,5.8,-,N/A,,Clear,100,2013-01-31 06:55:00
11:15 PM,46.4,42.8,87,30.29,10.0,East,6.9,-,N/A,,Clear,100,2013-01-31 07:15:00
11:35 PM,46.4,42.8,87,30.29,10.0,East,5.8,-,N/A,,Clear,100,2013-01-31 07:35:00
11:55 PM,46.4,42.8,87,30.29,10.0,ESE,4.6,-,N/A,,Clear,110,2013-01-31 07:55:00